Simultaneous Nadir Overpasses (SNOs) Predictions

Prediction of SNOs between AURA and NPP Satellite Orbit:

Table of predicted SNOs for the next 14.0 days since TLE Epoch: 1/23/2015
Index Date (AURA) Time (AURA) Lat,Lon (AURA) SZA (AURA ) Date (NPP) Time (NPP) Lat,Lon (NPP) SZA (NPP ) Distance(km) Time Diff (sec)
1 01/24/2015 23:35:18 -78.18,-104.27 66.57 01/24/2015 23:35:14 -78.18,-104.30 66.56 0.78 4
2 01/25/2015 00:24:30 78.77, 66.43 112.67 01/25/2015 00:25:43 78.77, 66.50 112.60 1.58 73
3 01/27/2015 15:02:29 77.76,-157.93 113.32 01/27/2015 15:01:28 77.77,-157.92 113.37 0.11 61
4 01/27/2015 15:51:42 -78.39, 12.64 67.46 01/27/2015 15:51:58 -78.39, 12.65 67.48 0.28 16
5 01/30/2015 07:18:54 77.90, -41.42 112.48 01/30/2015 07:18:14 77.90, -41.50 112.53 1.84 40
6 01/30/2015 08:08:08 -78.48, 128.99 68.25 01/30/2015 08:08:45 -78.48, 128.93 68.27 1.37 37
7 02/01/2015 23:35:15 78.14, 75.58 111.47 02/01/2015 23:34:56 78.14, 75.56 111.49 0.43 19
8 02/02/2015 00:24:29 -78.71,-113.89 69.27 02/02/2015 00:25:27 -78.71,-113.87 69.32 0.43 58
9 02/04/2015 15:02:47 -76.74, 18.08 67.60 02/04/2015 15:01:33 -76.79, 17.86 67.51 7.70 74
10 02/04/2015 15:51:38 78.31,-167.73 110.51 02/04/2015 15:51:41 78.30,-167.80 110.52 1.62 3




NCC Satellite Simultaneous Nadir Overpasses (SNOs) Prediction Service
